Weather History for Oakes, ND

Change the Weather History Date:

Tuesday, March 26, 2013

  Actual Average (KABR) Record (KABR)
Temperature  
Mean Temperature 10 °F 34 °F  
Max Temperature 23 °F 45 °F 76 °F (1905)
Min Temperature -2 °F 24 °F -13 °F (1964)
Degree Days  
Heating Degree Days 54 30  
Month to date heating degree days 942  
Since 1 July heating degree days 7405  
Cooling Degree Days 0 0  
Month to date cooling degree days 0  
Year to date cooling degree days 0  
Moisture  
Dew Point 8 °F    
Average Humidity 93    
Maximum Humidity 100    
Minimum Humidity 80    
Precipitation  
Precipitation 0.00 in 0.04 in 0.98 in (1942)
Month to date precipitation 0.92  
Year to date precipitation 1.94  
Snow  
Snow 0.00 in - - ()
Month to date snowfall  
Since 1 July snowfall  
Snow Depth -    
Sea Level Pressure  
Sea Level Pressure 30.29 in    
Wind  
Wind Speed 4 mph (East)    
Max Wind Speed 12 mph    
Max Gust Speed -    
Visibility 10 miles    
Events Snow    
T = Trace of Precipitation, MM = Missing Value Source: NWS Daily Summary

Daily Weather History Graph

Daily Weather History Graph

Search for Another Location

Airport:

Trip Planner

Search our weather history database for the weather conditions in past years. The results will help you decide how hot, cold, wet, or windy it might be!

Date:

Astronomy

Mar. 26, 2013 Rise Set
Actual Time 7:23 AM CDT 7:53 PM CDT
Civil Twilight 6:53 AM CDT 8:23 PM CDT
Nautical Twilight 6:17 AM CDT 8:59 PM CDT
Astronomical Twilight 5:40 AM CDT 9:36 PM CDT
Moon 7:32 PM CDT (3/26) 6:41 AM CDT (3/26)
Length of Visible Light 13h 30m
Length of Day
12h 30m
Waxing Gibbous, 99% of the Moon is Illuminated
Mar 26
Waxing Gibbous
Mar 27
Full
Apr 2
Last Quarter
Apr 10
New
Apr 18
First Quarter

Hourly Weather History & Observations

Time (CDT) Temp. Windchill Dew Point Humidity Pressure Visibility Wind Dir Wind Speed Gust Speed Precip Events Conditions
12:15 AM 8.6 °F 0.1 °F 6.8 °F 92% 30.34 in 10.0 mi WNW 4.6 mph - N/A   Unknown
12:35 AM 6.8 °F -3.5 °F 5.0 °F 92% 30.34 in 10.0 mi WNW 5.8 mph - N/A   Unknown
12:55 AM 6.8 °F -4.8 °F 6.8 °F 100% 30.33 in 10.0 mi NW 6.9 mph - N/A   Unknown
1:15 AM 6.8 °F -2.0 °F 5.0 °F 92% 30.34 in 10.0 mi NW 4.6 mph - N/A   Unknown
1:35 AM 6.8 °F -0.1 °F 5.0 °F 92% 30.34 in 10.0 mi WNW 3.5 mph - N/A   Unknown
1:55 AM 5.0 °F -2.1 °F 5.0 °F 100% 30.34 in 10.0 mi NW 3.5 mph - N/A   Unknown
2:15 AM 5.0 °F -5.6 °F 5.0 °F 100% 30.33 in 10.0 mi NNW 5.8 mph - N/A   Unknown
2:35 AM 5.0 °F -4.1 °F 5.0 °F 100% 30.33 in 10.0 mi NW 4.6 mph - N/A   Unknown
2:55 AM 3.2 °F -6.2 °F 1.4 °F 92% 30.33 in 10.0 mi WNW 4.6 mph - N/A   Unknown
3:15 AM 3.2 °F - 1.4 °F 92% 30.33 in 10.0 mi Calm Calm - N/A   Unknown
3:35 AM 5.0 °F - 3.2 °F 92% 30.32 in 10.0 mi Calm Calm - N/A   Unknown
3:55 AM 3.2 °F - 1.4 °F 92% 30.32 in 10.0 mi Calm Calm - N/A   Unknown
4:15 AM 1.4 °F - -0.4 °F 92% 30.32 in 10.0 mi Calm Calm - N/A   Unknown
4:35 AM 1.4 °F -6.2 °F -0.4 °F 92% 30.32 in 10.0 mi WNW 3.5 mph - N/A   Unknown
4:55 AM -0.4 °F -10.4 °F -0.4 °F 100% 30.32 in 10.0 mi West 4.6 mph - N/A   Unknown
5:15 AM -0.4 °F - -0.4 °F 100% 30.31 in 10.0 mi Calm Calm - N/A   Unknown
5:35 AM -0.4 °F - -0.4 °F 100% 30.32 in 10.0 mi Calm Calm - N/A   Unknown
5:55 AM -0.4 °F -10.4 °F -2.2 °F 92% 30.31 in 10.0 mi West 4.6 mph - N/A   Unknown
6:15 AM -2.2 °F -10.4 °F -4.0 °F 92% 30.31 in 10.0 mi West 3.5 mph - N/A   Unknown
6:35 AM -0.4 °F - -4.0 °F 85% 30.31 in 10.0 mi Calm Calm - N/A   Unknown
6:55 AM -2.2 °F - -4.0 °F 92% 30.31 in 10.0 mi Calm Calm - N/A   Unknown
7:15 AM -2.2 °F - -4.0 °F 92% 30.31 in 10.0 mi Calm Calm - N/A Snow Light Snow
7:35 AM -0.4 °F - -2.2 °F 92% 30.32 in 10.0 mi Calm Calm - N/A   Unknown
7:55 AM -2.2 °F - -5.8 °F 85% 30.32 in 8.0 mi Calm Calm - N/A   Unknown
8:15 AM -2.2 °F - -4.0 °F 92% 30.32 in 10.0 mi Calm Calm - N/A   Unknown
8:35 AM -0.4 °F -8.3 °F -2.2 °F 92% 30.33 in 10.0 mi West 3.5 mph - N/A   Unknown
8:55 AM -0.4 °F - -2.2 °F 92% 30.33 in 10.0 mi Calm Calm - N/A   Unknown
9:15 AM -0.4 °F - -2.2 °F 92% 30.33 in 10.0 mi Calm Calm - N/A Snow Light Snow
9:35 AM -0.4 °F - -2.2 °F 92% 30.33 in 10.0 mi Calm Calm - N/A   Unknown
9:55 AM 1.4 °F - -0.4 °F 92% 30.33 in 10.0 mi Calm Calm - N/A   Unknown
10:15 AM 5.0 °F - 1.4 °F 85% 30.33 in 10.0 mi Calm Calm - N/A Snow Light Snow
10:35 AM 5.0 °F - 5.0 °F 100% 30.33 in 10.0 mi Calm Calm - N/A   Unknown
10:55 AM 6.8 °F - 5.0 °F 92% 30.33 in 10.0 mi Calm Calm - N/A   Unknown
11:15 AM 8.6 °F - 6.8 °F 92% 30.33 in 10.0 mi Calm Calm - N/A   Unknown
11:35 AM 10.4 °F - 8.6 °F 92% 30.32 in 10.0 mi Calm Calm - N/A   Unknown
11:55 AM 10.4 °F - 10.4 °F 100% 30.32 in 10.0 mi Calm Calm - N/A   Unknown
12:15 PM 12.2 °F - 12.2 °F 100% 30.31 in 10.0 mi Calm Calm - N/A   Unknown
12:35 PM 14.0 °F 8.2 °F 14.0 °F 100% 30.31 in 10.0 mi ESE 3.5 mph - N/A   Unknown
12:55 PM 15.8 °F - 14.0 °F 93% 30.31 in 10.0 mi Calm Calm - N/A   Unknown
1:15 PM 17.6 °F 8.2 °F 15.8 °F 93% 30.30 in 10.0 mi SE 6.9 mph - N/A   Unknown
1:35 PM 17.6 °F 10.7 °F 15.8 °F 93% 30.29 in 10.0 mi SE 4.6 mph - N/A   Unknown
1:55 PM 17.6 °F 9.3 °F 15.8 °F 93% 30.29 in 10.0 mi SSE 5.8 mph - N/A   Unknown
2:15 PM 19.4 °F 12.8 °F 17.6 °F 93% 30.28 in - SSE 4.6 mph - N/A   Unknown
2:35 PM 19.4 °F 14.3 °F 17.6 °F 93% 30.28 in - SSE 3.5 mph - N/A   Unknown
2:55 PM 21.2 °F - 17.6 °F 86% 30.28 in - Calm Calm - N/A   Unknown
3:15 PM 21.2 °F 13.6 °F 17.6 °F 86% 30.27 in - SE 5.8 mph - N/A   Unknown
3:35 PM 21.2 °F 12.6 °F 17.6 °F 86% 30.26 in 10.0 mi SE 6.9 mph - N/A   Unknown
3:55 PM 23.0 °F 14.7 °F 17.6 °F 80% 30.26 in 10.0 mi SE 6.9 mph - N/A   Unknown
4:15 PM 23.0 °F 13.9 °F 17.6 °F 80% 30.25 in 10.0 mi ESE 8.1 mph - N/A   Unknown
4:35 PM 23.0 °F 15.8 °F 17.6 °F 80% 30.26 in 10.0 mi ESE 5.8 mph - N/A   Unknown
4:55 PM 23.0 °F 13.9 °F 17.6 °F 80% 30.25 in 10.0 mi East 8.1 mph - N/A   Unknown
5:15 PM 23.0 °F 13.9 °F 17.6 °F 80% 30.25 in 10.0 mi East 8.1 mph - N/A   Unknown
5:35 PM 23.0 °F 13.1 °F 17.6 °F 80% 30.24 in 10.0 mi East 9.2 mph - N/A   Unknown
5:55 PM 21.2 °F 10.9 °F 17.6 °F 86% 30.24 in 10.0 mi East 9.2 mph - N/A   Unknown
6:15 PM 21.2 °F 10.1 °F 17.6 °F 86% 30.24 in 10.0 mi East 10.4 mph - N/A   Unknown
6:35 PM 21.2 °F 11.7 °F 17.6 °F 86% 30.24 in 10.0 mi East 8.1 mph - N/A   Unknown
6:55 PM 19.4 °F 7.9 °F 17.6 °F 93% 30.24 in 10.0 mi East 10.4 mph - N/A   Unknown
7:15 PM 19.4 °F 7.9 °F 17.6 °F 93% 30.24 in 10.0 mi East 10.4 mph - N/A   Unknown
7:35 PM 17.6 °F 5.7 °F 15.8 °F 93% 30.24 in 10.0 mi East 10.4 mph - N/A   Unknown
7:55 PM 15.8 °F 4.2 °F 14.0 °F 93% 30.24 in 10.0 mi East 9.2 mph - N/A   Unknown
8:15 PM 14.0 °F 2.0 °F 14.0 °F 100% 30.25 in 10.0 mi ENE 9.2 mph - N/A   Unknown
8:35 PM 12.2 °F 0.7 °F 12.2 °F 100% 30.25 in 10.0 mi ENE 8.1 mph - N/A   Unknown
8:55 PM 12.2 °F -0.2 °F 10.4 °F 92% 30.25 in 10.0 mi East 9.2 mph - N/A   Unknown
9:15 PM 10.4 °F -2.4 °F 10.4 °F 100% 30.26 in 10.0 mi ENE 9.2 mph - N/A   Unknown
9:35 PM 10.4 °F -2.4 °F 10.4 °F 100% 30.26 in 10.0 mi East 9.2 mph - N/A   Unknown
9:55 PM 10.4 °F -2.4 °F 8.6 °F 92% 30.26 in 10.0 mi ENE 9.2 mph - N/A   Unknown
10:15 PM 8.6 °F -5.5 °F 8.6 °F 100% 30.26 in 10.0 mi ENE 10.4 mph - N/A   Unknown
10:35 PM 8.6 °F -5.5 °F 8.6 °F 100% 30.26 in 10.0 mi ENE 10.4 mph - N/A   Unknown
10:55 PM 8.6 °F -5.5 °F 6.8 °F 92% 30.26 in 10.0 mi East 10.4 mph - N/A   Unknown
11:15 PM 8.6 °F -4.7 °F 8.6 °F 100% 30.26 in 10.0 mi East 9.2 mph - N/A   Unknown
11:35 PM 6.8 °F -6.9 °F 6.8 °F 100% 30.26 in 10.0 mi ENE 9.2 mph - N/A   Unknown
11:55 PM 6.8 °F -8.6 °F 6.8 °F 100% 30.26 in 10.0 mi ENE 11.5 mph - N/A   Unknown